{"data":{"norad_id":60399,"epoch":"2026-05-25T02:01:18.151968Z","epoch_age_seconds":68004,"freshness":"FRESH","line1":"1 60399U 24141B   26145.08423787  .00001621  00000+0  18238-4 0  9991","line2":"2 60399  53.1581  69.5091 0000773  68.2286 291.8814 15.69703867103741","mean_motion":15.69703867,"eccentricity":7.73e-5,"inclination_deg":53.1581,"raan_deg":69.5091,"arg_perigee_deg":68.2286,"mean_anomaly_deg":291.8814,"bstar":1.8238e-5,"rev_number":10374,"period_min":91.737048641672,"perigee_km":359.22346255079,"apogee_km":360.26513899989,"semimajor_km":6737.8813007753,"source":"CELESTRAK","updated_at":"2026-05-25T13:38:19.262449Z"}}